#timestamp,LO_Frequency,Hit,StdDev 
1514242815.2,286046999.8,N
1514242835.9,286047000.5,N
1514242855.7,286047000.1,N
1514242875.6,286047001.2,N
1514242895.4,286046998.4,N
1514242915.2,286046998.2,N
1514242935.1,286047000.6,N
1514242936.0,286047000.6,N
1514242955.8,286047001.6,N
1514242975.7,286047004.1,N
1514242995.5,286047001.6,N
1514243015.3,286047002.8,N
1514243035.2,286046999.9,N
1514243055.0,286047000.7,N
1514243055.9,286047000.7,N
1514243075.8,286047000.6,N
1514243095.6,286046998.1,N
1514243115.4,286046999.1,N
1514243135.3,286047000.0,N
1514243155.1,286047002.7,N
1514243175.8,286047002.8,N
1514243195.7,286047002.3,N
1514243215.5,286047001.0,N
1514243235.4,286047000.4,N
1514243255.2,286047000.3,N
1514243275.0,286047000.9,N
1514243275.9,286047000.9,N
1514243295.8,286047000.5,N
1514243315.6,286047000.1,N
1514243335.4,286047000.5,N
1514243355.3,286046999.8,N
1514243375.1,286047002.2,N
1514243395.9,286047001.8,N
1514243415.7,286047003.9,N
1514243435.5,286047001.5,N
1514243455.4,286047003.2,N
1514243475.2,286047001.7,N
1514243495.0,286047002.5,N
1514243495.9,286047002.5,N
1514243515.8,286047001.6,N
1514243535.6,286047002.5,N
1514243555.5,286047002.2,N
1514243575.3,286047004.0,Y
1514243595.1,286047001.4,P
1514243615.9,286047001.8,P
1514243635.7,286047002.7,P
1514243655.7,286047002.0,Y
1514243675.5,286046998.5,P
1514243695.4,286046998.4,N
1514243715.2,286046998.9,N
1514243735.1,286046999.0,N
1514243736.0,286046999.0,N
1514243755.8,286046998.1,N
1514243775.6,286047001.2,N
1514243795.5,286047001.1,N
1514243815.3,286047000.8,N
1514243835.1,286047001.0,N
1514243855.9,286046998.3,N
1514243875.7,286046999.3,N
1514243895.6,286046998.1,N
1514243915.4,286046998.5,N
1514243935.2,286047002.8,N
1514243955.1,286047002.3,N
1514243956.0,286047002.3,N
1514243975.8,286047002.7,N
1514243995.7,286047002.8,N
1514244015.5,286047000.2,N
1514244035.3,286047000.4,N
1514244055.2,286047000.9,N
1514244075.0,286046999.3,N
1514244075.9,286046999.3,N
1514244095.8,286046999.5,N
1514244115.6,286046999.1,N
1514244135.4,286046998.3,N
1514244155.3,286047000.4,N
1514244175.1,286047000.3,N
1514244195.8,286046999.8,N
1514244215.7,286047000.4,N
1514244235.5,286047002.4,N
1514244255.4,286047000.4,N
1514244275.2,286046998.1,N
1514244295.3,286046996.5,N
1514244315.1,286046996.6,N
1514244335.9,286046996.8,N
1514244355.7,286046999.4,N
1514244375.5,286046999.9,N
1514244395.4,286046999.9,N
1514244415.2,286047000.3,N
1514244435.1,286047000.3,N
1514244436.0,286047000.3,N
1514244455.8,286047000.1,N
1514244475.7,286047002.7,N
1514244495.5,286047000.6,N
1514244515.3,286046998.2,N
1514244535.2,286046998.5,N
1514244555.9,286046998.4,N
1514244575.7,286047000.9,N
1514244595.6,286047001.9,N
1514244615.4,286047001.5,N
1514244635.3,286047000.1,N
1514244655.1,286046998.2,N
1514244656.0,286046998.2,N
1514244675.8,286046998.6,N
1514244695.7,286047000.9,N
1514244715.5,286047000.4,N
1514244735.4,286047002.0,N
1514244755.2,286047002.1,N
1514244775.0,286047000.0,N
1514244775.9,286047000.0,N
1514244795.8,286046998.1,N
1514244815.6,286047000.2,N
1514244835.4,286046998.1,N
1514244855.3,286046999.6,N
1514244875.1,286047001.2,N
1514244895.9,286047000.7,N
1514244915.7,286047000.7,N
1514244935.5,286047001.0,N
1514244955.4,286046998.5,N
1514244975.2,286046998.7,N
1514244995.0,286047000.6,N
1514244995.9,286047000.6,N
1514245015.8,286047000.3,N
1514245035.6,286047002.6,N
1514245055.4,286047000.4,N
1514245075.3,286047000.5,N
1514245095.1,286046998.1,N
1514245096.0,286046998.1,N
1514245115.8,286046998.4,N
1514245135.7,286046999.0,N
1514245155.5,286046998.9,N
1514245175.3,286046998.8,N
1514245195.2,286047001.2,N
1514245215.0,286047002.3,N
1514245215.9,286047002.3,N
1514245235.8,286047001.7,N
1514245255.6,286047000.5,N
1514245275.4,286046998.4,N
1514245295.3,286046999.0,N
1514245315.1,286046999.4,N
1514245335.9,286046998.1,N
1514245355.7,286047000.9,N
1514245375.5,286047000.1,N
1514245395.4,286047000.1,N
1514245415.2,286047002.6,N
1514245435.0,286047002.8,N
1514245435.9,286047002.8,N
1514245455.8,286046999.7,N
1514245475.6,286047000.2,N
1514245495.5,286047000.1,N
1514245515.3,286046999.8,N
1514245535.1,286047000.5,N
1514245555.9,286046998.1,N
1514245575.7,286047000.8,N
1514245595.5,286046998.9,N
1514245615.4,286046998.1,N
1514245635.2,286046998.3,N
1514245655.1,286047001.2,N
1514245656.0,286047001.2,N
1514245675.8,286046998.7,N
1514245695.6,286046999.1,N
1514245715.5,286046997.6,N
1514245735.3,286046997.6,N
1514245755.1,286046997.3,N
1514245775.9,286046997.6,N
1514245795.7,286046996.2,N
1514245815.6,286046995.4,N
1514245835.4,286046996.8,N
1514245855.2,286046995.3,N
1514245875.1,286046997.6,N
1514245876.0,286046997.6,N
1514245895.8,286046997.9,N
1514245915.7,286046995.5,N
1514245935.8,286046996.1,N
1514245955.7,286046993.7,N
1514245975.5,286046996.4,N
1514245995.3,286046993.8,Y
1514246015.2,286046997.4,P
1514246035.0,286046996.6,P
1514246035.9,286046996.6,P
1514246055.8,286046996.8,Y
1514246075.6,286047001.1,P
1514246095.4,286047000.7,N
1514246115.3,286046998.1,N
1514246135.1,286046998.3,N
1514246155.9,286046996.8,N
1514246175.7,286046997.0,N
1514246195.5,286046997.8,N
1514246215.4,286046995.4,Y
1514246235.2,286046997.3,P
1514246255.0,286046997.4,P
1514246255.9,286046997.4,P
1514246275.8,286046996.5,Y
1514246295.6,286047000.0,P
1514246315.5,286047000.0,N
1514246335.3,286047000.2,N
1514246355.1,286047000.5,N
1514246375.9,286047000.5,N
1514246395.2,286046998.9,N
